Stafford, VA

10:07 AM EST on January 20, 2018 (GMT -0500)
Stafford

Weather History for KRMN - January, 2014

Change the Weather History Date:

Sunday, January 12, 2014

  Actual Average (KNYG) Record (KNYG)
Temperature  
Mean Temperature 42 °F -  
Max Temperature 55 °F 40 °F 72 °F (2017)
Min Temperature 29 °F 25 °F 18 °F (1997)
Degree Days  
Heating Degree Days 23    
Moisture  
Dew Point 33 °F    
Average Humidity 69    
Maximum Humidity 100    
Minimum Humidity 39    
Precipitation  
Precipitation 0.00 in - - ()
Sea Level Pressure  
Sea Level Pressure 29.95 in    
Wind  
Wind Speed 5 mph (West)    
Max Wind Speed 12 mph    
Max Gust Speed 18 mph    
Visibility 10 miles    
Events      
Averages and records for this station are not official NWS values.
T = Trace of Precipitation, MM = Missing Value Source: NWS Daily Summary

Daily Weather History Graph

Daily Weather History Graph

Search for Another Location

Airport or City:

Trip Planner

Search our weather history database for the weather conditions in past years. The results will help you decide how hot, cold, wet, or windy it might be!

Date:

Astronomy

Jan. 12, 2014 Rise Set
Actual Time 7:26 AM EST 5:10 PM EST
Civil Twilight 6:57 AM EST 5:39 PM EST
Nautical Twilight 6:24 AM EST 6:12 PM EST
Astronomical Twilight 5:52 AM EST 6:43 PM EST
Moon 2:36 PM EST (1/12) 4:23 AM EST (1/12)
Length of Visible Light 10h 41m
Length of Day
9h 43m
Waxing Gibbous, 89% of the Moon is Illuminated
Jan 12
Waxing Gibbous
Jan 15
Full
Jan 24
Last Quarter
Jan 30
New
Feb 6
First Quarter

Hourly Weather History & Observations

Time (EST) Temp. Windchill Dew Point Humidity Pressure Visibility Wind Dir Wind Speed Gust Speed Precip Events Conditions
12:15 AM 52.2 °F - 50.7 °F 95% 29.61 in 10.0 mi West 3.5 mph - N/A   Overcast
12:35 AM 50.7 °F - 50.0 °F 97% 29.62 in 10.0 mi WNW 4.6 mph - N/A   Overcast
12:55 AM 50.9 °F - 48.4 °F 91% 29.63 in 10.0 mi West 4.6 mph - N/A   Mostly Cloudy
1:15 AM 49.3 °F - 48.4 °F 97% 29.64 in 10.0 mi WNW 5.8 mph - N/A   Mostly Cloudy
1:35 AM 48.0 °F - 43.7 °F 85% 29.65 in 10.0 mi NW 9.2 mph - N/A   Mostly Cloudy
1:55 AM 46.0 °F 43.1 °F 39.6 °F 78% 29.66 in 10.0 mi NW 5.8 mph - N/A   Scattered Clouds
2:15 AM 44.1 °F 40.1 °F 40.1 °F 86% 29.68 in 10.0 mi NW 6.9 mph - N/A   Clear
2:35 AM 44.6 °F 38.8 °F 37.2 °F 75% 29.69 in 10.0 mi NNW 11.5 mph - N/A   Clear
2:55 AM 43.9 °F 38.8 °F 35.4 °F 72% 29.70 in 10.0 mi NNW 9.2 mph - N/A   Clear
3:15 AM 43.7 °F 39.7 °F 34.3 °F 70% 29.71 in 10.0 mi NW 6.9 mph - N/A   Scattered Clouds
3:35 AM 42.3 °F 37.3 °F 37.8 °F 84% 29.71 in 10.0 mi WNW 8.1 mph - N/A   Scattered Clouds
3:55 AM 43.7 °F 38.1 °F 34.7 °F 71% 29.71 in 10.0 mi WNW 10.4 mph - N/A   Clear
4:15 AM 46.2 °F 44.1 °F 32.9 °F 60% 29.72 in 10.0 mi West 4.6 mph - N/A   Clear
4:35 AM 44.6 °F 40.2 °F 32.5 °F 63% 29.74 in 10.0 mi West 8.1 mph - N/A   Clear
4:55 AM 43.9 °F 41.3 °F 32.0 °F 63% 29.75 in 10.0 mi WNW 4.6 mph - N/A   Clear
5:15 AM 45.0 °F 42.6 °F 31.5 °F 59% 29.76 in 10.0 mi WSW 4.6 mph - N/A   Clear
5:35 AM 44.8 °F 42.4 °F 31.5 °F 60% 29.77 in 10.0 mi SSW 4.6 mph - N/A   Scattered Clouds
5:55 AM 40.1 °F 38.0 °F 32.7 °F 75% 29.79 in 10.0 mi SW 3.5 mph - N/A   Clear
6:15 AM 41.2 °F 37.3 °F 31.8 °F 69% 29.81 in 10.0 mi WNW 5.8 mph - N/A   Clear
6:35 AM 45.1 °F 40.8 °F 30.2 °F 56% 29.82 in 10.0 mi West 8.1 mph - N/A   Clear
6:55 AM 43.9 °F 40.5 °F 30.6 °F 59% 29.84 in 10.0 mi West 5.8 mph - N/A   Clear
7:15 AM 40.6 °F - 31.3 °F 69% 29.85 in 10.0 mi Calm Calm - N/A   Clear
7:35 AM 37.2 °F - 31.1 °F 79% 29.87 in 10.0 mi Calm Calm - N/A   Clear
7:55 AM 36.3 °F - 32.0 °F 84% 29.89 in 10.0 mi Calm Calm - N/A   Clear
8:15 AM 36.0 °F 32.1 °F 32.4 °F 87% 29.90 in 10.0 mi North 4.6 mph - N/A   Clear
8:35 AM 36.0 °F - 36.0 °F 100% 29.92 in 10.0 mi Calm Calm - N/A   Clear
8:55 AM 40.1 °F - 35.2 °F 83% 29.94 in 10.0 mi Calm Calm - N/A   Clear
9:15 AM 42.6 °F - 35.8 °F 77% 29.96 in 10.0 mi Calm Calm - N/A   Clear
9:35 AM 46.8 °F - 32.9 °F 59% 29.96 in 10.0 mi Calm Calm - N/A   Clear
9:55 AM 48.4 °F - 32.0 °F 53% 29.97 in 10.0 mi West 4.6 mph - N/A   Clear
10:15 AM 49.1 °F - 32.4 °F 53% 29.98 in 10.0 mi NW 10.4 mph - N/A   Clear
10:35 AM 49.5 °F - 31.3 °F 50% 29.99 in 10.0 mi West 4.6 mph - N/A   Clear
10:55 AM 50.4 °F - 32.7 °F 51% 29.99 in 10.0 mi NW 8.1 mph - N/A   Clear
11:15 AM 50.5 °F - 31.1 °F 47% 30.00 in 10.0 mi WNW 4.6 mph - N/A   Clear
11:35 AM 50.9 °F - 31.3 °F 47% 29.99 in 10.0 mi WNW 9.2 mph - N/A   Clear
11:55 AM 50.9 °F - 29.7 °F 44% 29.99 in 10.0 mi West 6.9 mph - N/A   Clear
12:15 PM 52.0 °F - 31.3 °F 45% 29.99 in 10.0 mi WNW 11.5 mph 18.4 mph N/A   Clear
12:35 PM 52.3 °F - 30.9 °F 44% 29.99 in 10.0 mi West 8.1 mph - N/A   Clear
12:55 PM 52.3 °F - 31.5 °F 45% 30.00 in 10.0 mi West 5.8 mph - N/A   Clear
1:15 PM 53.1 °F - 31.6 °F 44% 30.00 in 10.0 mi West 10.4 mph - N/A   Clear
1:35 PM 53.8 °F - 31.5 °F 43% 30.01 in 10.0 mi SW 6.9 mph - N/A   Clear
1:55 PM 54.0 °F - 30.7 °F 41% 30.01 in 10.0 mi SW 6.9 mph - N/A   Scattered Clouds
2:15 PM 54.1 °F - 32.2 °F 43% 30.01 in 10.0 mi WSW 6.9 mph - N/A   Clear
2:35 PM 54.3 °F - 31.5 °F 42% 30.02 in 10.0 mi West 4.6 mph - N/A   Clear
2:55 PM 54.7 °F - 31.1 °F 41% 30.03 in 10.0 mi WSW 11.5 mph - N/A   Clear
3:15 PM 54.5 °F - 30.0 °F 39% 30.04 in 10.0 mi WSW 5.8 mph - N/A   Clear
3:35 PM 54.5 °F - 30.9 °F 41% 30.04 in 10.0 mi West 8.1 mph - N/A   Clear
3:55 PM 54.5 °F - 31.6 °F 42% 30.04 in 10.0 mi West 3.5 mph - N/A   Clear
4:15 PM 54.1 °F - 32.0 °F 43% 30.05 in 10.0 mi West 4.6 mph - N/A   Clear
4:35 PM 53.6 °F - 31.3 °F 43% 30.05 in 10.0 mi West 5.8 mph - N/A   Clear
4:55 PM 52.3 °F - 30.9 °F 44% 30.06 in 10.0 mi West 3.5 mph - N/A   Clear
5:15 PM 52.2 °F - 30.0 °F 43% 30.07 in 10.0 mi West 3.5 mph - N/A   Clear
5:35 PM 49.5 °F - 30.7 °F 49% 30.08 in 10.0 mi Calm Calm - N/A   Clear
5:55 PM 43.5 °F - 32.9 °F 66% 30.09 in 10.0 mi Calm Calm - N/A   Clear
6:15 PM 43.7 °F - 34.0 °F 69% 30.10 in 10.0 mi Calm Calm - N/A   Clear
6:35 PM 39.9 °F - 32.9 °F 76% 30.11 in 10.0 mi Calm Calm - N/A   Clear
6:55 PM 40.1 °F - 32.5 °F 74% 30.12 in 10.0 mi Calm Calm - N/A   Clear
7:15 PM 37.0 °F - 32.2 °F 83% 30.13 in 10.0 mi Calm Calm - N/A   Clear
7:35 PM 38.3 °F - 33.3 °F 82% 30.13 in 10.0 mi Calm Calm - N/A   Clear
7:55 PM 35.8 °F - 32.4 °F 87% 30.13 in 10.0 mi Calm Calm - N/A   Clear
8:15 PM 34.9 °F - 32.2 °F 90% 30.14 in 10.0 mi Calm Calm - N/A   Clear
8:35 PM 34.2 °F - 30.9 °F 88% 30.14 in 10.0 mi Calm Calm - N/A   Clear
8:55 PM 32.7 °F - 32.7 °F 100% 30.14 in 10.0 mi Calm Calm - N/A   Clear
9:15 PM 33.4 °F - 33.4 °F 100% 30.14 in 10.0 mi Calm Calm - N/A   Clear
9:35 PM 32.0 °F - 32.0 °F 100% 30.15 in 10.0 mi Calm Calm - N/A   Clear
9:55 PM 31.3 °F - 31.3 °F 100% 30.15 in 10.0 mi Calm Calm - N/A   Clear
10:15 PM 30.9 °F - 30.9 °F 100% 30.17 in 10.0 mi Calm Calm - N/A   Clear
10:35 PM 30.6 °F - 30.6 °F 100% 30.15 in 10.0 mi Calm Calm - N/A   Clear
10:55 PM 30.2 °F - 30.2 °F 100% 30.15 in 10.0 mi Calm Calm - N/A   Clear
11:15 PM 30.6 °F - 30.6 °F 100% 30.15 in 10.0 mi Calm Calm - N/A   Clear
11:35 PM 30.4 °F - 30.4 °F 100% 30.15 in 10.0 mi Calm Calm - N/A   Clear
11:55 PM 29.8 °F - 29.8 °F 100% 30.15 in 10.0 mi Calm Calm - N/A   Clear